Torna al catalogo

FENGYUN 1C DEB *

AttivoPO
NORAD 46993·DEBRIS·🇨🇳 China

Lanciato May 10, 1999 da Taiyuan Satellite Launch Center

Loading…

Prossimi Passaggi (prossime 24 ore)

TLE

AggiornatoSource: Space-Track

Epoca: Sep 13, 2026, 02:51 UTC

1 46993U 99025EZT 26256.11909788  .00000293  00000-0  30231-3 0  9996
2 46993  98.7392 354.2641 0261541 292.8491 189.3926 13.69388242640127

Traccia FENGYUN 1C DEB * in tempo reale con AllMySat

Download on the App Store